Location: Dal�� Lhota
(48.7500°N, 14.0167°E)
Time: 17:47:54
(UTC+00:00)

Explorer 7 - Pass Details

Date: 04 August 2021
Orbit: 484 x 676 km, 50.3° (Epoch: 20 September)

Event Time Altitude Azimuth Distance (km) Brightness Sun altitude
Rises 07:09:15 0° 285° (WNW) 2,619 9.8 32.3°
Reaches altitude 10° 07:11:24 10° 285° (WNW) 1,756 9.0 32.7°
Maximum altitude 07:15:23 86° 199° (SSW) 549 7.4 33.3°
Drops below altitude 10° 07:19:38 10° 109° (ESE) 1,863 11.0 34.0°
Sets 07:21:57 0° 109° (ESE) 2,795 11.5 34.4°
